Zurück zum Katalog

SL-14 DEB

AktivPO
NORAD 45275·DEBRIS·🇷🇺 Russia

Gestartet Aug 15, 1991 von Plesetsk Cosmodrome

Loading…

Nächste Überflüge (nächste 24 Stunden)

TLE

AktuellSource: Space-Track

Epoche: Sep 14, 2026, 06:13 UTC

1 45275U 91056M   26257.25914989  .00000060  00000-0  11261-3 0  9993
2 45275  82.5815  67.7715 0030226  98.4806 261.9747 13.22383538317673

Verfolge SL-14 DEB in Echtzeit mit AllMySat

Download on the App Store